Probability
0 0 0 0 0 0 0 0 0 0 0 0 0 0 0 0 0 0 0 0 0 1 1 3 5 6 8 12 15 21 27 26 22 28 44 56 52 32 13 4 1 0 0
0 0 0 0 0 0 0 0 0 0 0 0 0 0 0 0 0 0 0 0 0 1 2 2 3 4 6 8 12 18 27 31 28 30 40 51 50 37 19 7 2 0 0
0 0 0 0 0 0 0 0 0 0 0 0 0 0 0 0 0 0 0 0 0 1 2 3 2 3 4 5 6 12 22 30 33 33 37 42 44 38 24 9 3 1 0
0 0 0 0 0 0 0 0 0 0 0 0 0 0 0 0 0 0 0 0 0 1 2 3 2 1 2 2 3 7 15 25 31 32 33 36 40 36 22 9 3 1 0
0 0 0 0 0 0 0 0 0 0 0 0 0 0 0 0 0 0 0 0 0 1 2 2 2 1 0 1 2 5 10 17 23 26 26 29 36 34 22 9 2 0 0
0 0 0 0 0 0 0 0 0 0 0 0 0 0 0 0 0 0 0 0 0 1 2 2 1 0 0 0 1 3 5 8 12 16 19 21 27 32 23 9 1 0 0
0 0 0 0 0 0 0 0 0 0 0 0 0 0 0 0 0 0 0 0 0 1 2 1 0 0 0 0 0 1 1 2 4 8 11 14 18 23 19 8 1 0 0
0 0 0 0 0 0 0 0 0 0 0 0 0 0 0 0 0 0 0 0 0 1 2 1 0 0 0 0 0 0 0 0 0 2 4 7 9 11 10 6 2 0 0
0 0 0 0 0 0 0 0 0 0 0 0 0 0 0 0 0 0 0 0 0 1 1 0 0 0 0 0 0 0 0 0 0 0 1 1 2 3 4 4 2 0 0
0 0 0 0 0 0 0 0 0 0 0 0 0 0 0 0 0 0 0 0 0 0 0 0 0 0 0 0 0 0 0 0 0 0 0 0 0 0 1 2 1 0 0
0 0 0 0 0 0 0 0 0 0 0 0 0 0 0 0 0 0 0 0 0 0 0 0 0 0 0 0 0 0 0 0 0 0 0 0 0 1 1 1 0 0 0
0 0 0 0 0 0 0 0 0 0 0 0 0 0 0 0 0 0 0 0 0 0 0 0 0 0 0 0 0 0 0 0 0 0 0 0 0 1 2 1 0 0 0
0 0 0 0 0 0 0 0 0 0 0 0 0 0 0 0 0 0 0 0 0 0 0 0 0 0 0 0 0 0 0 0 0 0 0 0 0 1 1 1 0 0 0
0 0 0 0 0 0 0 0 0 0 0 0 0 0 0 0 0 0 0 0 0 0 0 0 0 0 0 0 0 0 0 0 0 0 0 0 0 0 0 0 0 0 0
0 0 0 0 0 0 0 0 0 0 0 0 0 0 0 0 0 0 0 0 0 0 0 0 0 0 0 0 0 0 0 0 0 0 0 0 0 0 0 0 0 0 0
0 0 0 0 0 0 0 0 0 0 0 0 0 0 0 0 0 0 0 0 0 0 0 0 0 0 0 0 0 0 0 0 0 0 0 0 0 0 0 0 0 0 0
0 0 0 0 0 0 0 0 0 0 0 0 0 0 0 0 0 0 0 0 0 0 0 0 0 0 0 0 0 0 0 0 0 0 0 0 0 0 0 0 0 0 0
0 0 0 0 0 0 0 0 0 0 0 0 0 0 0 0 0 0 0 0 0 0 0 0 0 0 0 0 0 0 0 0 0 0 0 0 0 0 0 0 0 0 0
0 0 0 0 0 0 0 0 0 0 0 0 0 0 0 0 0 0 0 0 0 0 0 0 0 0 0 0 0 0 0 0 0 0 0 0 0 0 0 0 0 0 0
0 0 0 0 0 0 0 0 0 0 0 0 0 0 0 0 0 0 0 0 0 0 0 0 0 0 0 0 0 0 0 0 0 0 0 0 0 0 0 0 0 0 0
0 0 0 0 0 0 0 0 0 0 0 0 0 0 0 0 0 0 0 0 0 0 0 0 0 0 0 0 0 0 0 0 0 0 0 0 0 0 0 0 0 0 0
0 0 0 0 0 0 0 0 0 0 0 0 0 0 0 0 0 0 0 0 0 0 0 0 0 0 0 0 0 0 0 0 0 0 0 0 0 0 0 0 0 0 0
0 0 0 0 0 0 0 0 0 0 0 0 0 0 0 0 0 0 0 0 0 0 0 0 0 0 0 0 0 0 0 0 0 0 0 0 0 0 0 0 0 0 0
0 0 0 0 0 0 0 0 0 0 0 0 0 0 0 0 0 0 0 0 0 0 0 0 0 0 0 0 0 0 0 0 0 0 0 0 0 0 0 0 0 0 0
0 0 0 0 0 0 0 0 0 0 0 0 0 0 0 0 0 0 0 0 0 0 0 0 0 0 0 0 0 0 0 0 0 0 0 0 0 0 0 0 0 0 0
0 0 0 0 0 0 0 0 0 0 0 0 0 0 0 0 0 0 0 0 0 0 0 0 0 0 0 0 0 0 0 0 0 0 0 0 0 0 0 0 0 0 0
Wind_Speed
6 6 6 7 7 8 7 8 7 7 8 9 9 9 9 9 9 8 8 7 7 7 6 6 6 5 4 4 4 4 4 3 3 2 3 6 6 7 6 5 6 5 4
7 6 7 7 8 8 9 8 7 8 8 9 9 9 10 11 9 9 9 10 9 9 8 8 7 6 6 4 4 5 4 4 3 3 4 5 6 8 7 5 5 6 6
9 8 8 9 9 9 9 8 8 8 8 9 9 10 10 10 10 10 10 10 10 9 9 9 9 8 7 5 5 4 4 4 2 3 4 5 5 7 8 7 8 6 6
10 10 9 10 10 10 10 9 9 9 9 10 10 10 10 10 11 11 11 11 10 10 9 9 9 9 8 7 6 5 4 3 3 3 3 4 6 8 8 7 6 5 5
10 11 11 10 10 10 9 9 9 10 12 10 10 10 10 10 11 11 10 13 11 11 10 10 10 11 12 9 7 7 6 5 3 4 4 4 5 8 8 6 8 6 5
10 11 11 11 11 11 10 10 10 10 10 10 11 12 12 12 14 13 10 10 10 9 9 10 10 11 12 13 13 11 9 7 6 5 5 5 6 7 7 8 9 8 4
10 11 11 11 12 12 13 13 12 11 11 11 12 12 13 12 15 15 15 11 11 9 9 9 11 12 13 10 12 13 12 11 9 6 6 5 4 5 7 10 10 8 6
11 11 12 12 13 12 12 12 11 10 10 11 11 12 12 13 15 15 15 13 11 11 10 10 10 9 9 9 10 11 10 10 11 8 6 6 4 3 5 7 8 8 9
12 12 12 13 14 13 13 13 11 10 11 11 11 11 11 12 14 14 13 9 9 11 11 10 9 10 10 11 9 9 9 8 11 12 9 7 7 7 6 6 10 11 8
12 13 13 13 13 14 13 12 11 9 11 11 11 10 11 11 11 12 12 8 8 8 8 7 9 11 12 12 9 8 8 8 8 9 8 8 7 8 10 9 10 12 9
12 13 14 13 13 13 11 9 9 10 10 10 11 9 9 9 9 10 10 7 7 6 6 6 6 11 12 12 9 6 7 6 7 8 8 7 7 7 8 8 8 10 10
12 14 14 14 14 12 11 10 9 9 9 9 8 8 6 5 5 5 6 8 5 4 4 4 5 10 12 13 9 6 6 5 4 6 6 7 7 8 8 8 8 7 6
13 14 14 15 13 11 10 10 8 7 7 7 6 6 5 4 2 3 5 6 5 2 1 1 3 9 9 9 10 9 7 4 4 5 6 6 6 7 7 6 6 6 7
13 14 13 13 13 11 7 7 7 7 7 7 6 6 5 4 3 2 2 4 5 5 4 2 4 7 6 6 7 7 6 5 5 5 5 5 5 6 7 7 7 8 7
13 13 13 12 12 10 8 6 6 4 4 5 6 6 5 4 4 5 4 1 1 2 2 3 3 4 5 6 6 7 7 6 6 5 5 5 6 6 7 8 8 8 7
12 12 10 11 10 9 8 7 4 5 5 6 6 6 5 3 4 4 3 3 3 2 0 3 4 5 6 6 7 7 7 7 7 6 6 6 6 7 7 8 9 9 10
12 12 10 10 10 9 8 7 6 4 6 8 8 8 7 6 5 4 3 2 2 0 3 4 4 5 6 6 6 7 7 7 6 6 6 6 7 8 9 10 10 9 10
12 11 11 9 9 9 8 7 6 6 5 3 5 8 7 7 6 5 3 2 4 5 6 6 5 5 5 5 6 6 6 6 6 6 6 7 7 8 9 10 10 11 11
11 9 9 10 10 9 7 7 6 6 5 4 2 3 6 6 6 6 4 5 6 5 6 6 6 6 5 5 5 5 5 5 6 6 7 7 8 9 9 10 10 14 12
9 12 12 10 10 8 7 6 5 5 5 4 3 2 2 4 4 5 6 6 6 5 5 5 5 5 4 4 4 4 5 5 5 5 6 7 8 9 10 12 12 13 11
9 10 13 11 8 8 7 5 5 5 5 4 3 2 3 4 4 3 3 4 5 5 5 4 4 4 4 3 4 5 6 5 5 6 6 7 8 9 9 10 11 12 11
9 9 9 9 8 7 7 6 4 4 5 5 3 2 3 4 4 3 3 3 3 3 3 3 3 3 3 3 4 4 5 5 6 6 7 8 8 9 10 10 11 11 11
9 9 9 9 8 8 7 5 4 4 4 4 4 3 3 3 4 3 3 3 3 3 2 2 3 3 2 2 2 4 5 6 6 7 9 9 9 10 10 11 13 13 12
8 9 9 9 8 7 7 6 5 4 4 4 4 4 4 3 4 4 4 3 2 2 2 2 3 3 2 1 1 2 3 4 6 7 11 11 11 11 11 11 12 13 12
7 8 8 8 8 8 7 7 5 4 4 3 3 3 4 3 3 3 3 3 3 1 1 1 1 1 1 2 2 3 5 6 5 6 8 9 12 13 12 13 11 12 11
7 8 7 7 8 8 7 7 5 4 3 3 3 3 3 3 3 3 3 2 2 1 1 1 2 2 3 3 6 7 7 7 7 7 7 9 11 11 12 10 13 11 12
Wind_Direction
322 323 317 310 310 305 298 296 301 305 306 302 299 295 291 285 277 266 255 246 238 237 237 233 230 237 261 276 288 290 276 254 238 222 141 137 129 128 135 135 143 131 96
327 319 313 312 309 306 305 303 299 295 293 294 292 290 287 284 279 273 263 255 241 233 229 228 228 226 228 243 259 273 274 261 232 212 157 148 147 137 136 136 121 99 92
321 319 317 313 309 304 301 298 296 293 291 290 287 285 283 282 280 277 270 261 252 241 231 224 222 218 220 220 229 247 265 268 256 225 186 165 154 142 131 116 99 97 93
320 317 312 307 304 301 299 298 296 294 292 287 285 283 280 278 277 275 272 266 259 252 240 229 222 217 215 212 218 222 232 248 250 240 212 173 161 149 138 132 122 108 98
315 311 308 306 303 298 296 295 293 291 291 289 289 286 282 277 269 263 260 265 258 251 246 236 228 221 214 209 212 208 210 215 220 227 223 195 170 161 159 148 134 120 102
314 310 308 305 302 300 298 295 292 290 290 289 286 284 280 277 279 280 275 273 271 257 250 243 236 230 220 209 207 197 195 204 205 209 218 207 195 173 162 153 144 145 135
313 310 309 308 306 305 305 302 298 296 294 289 284 280 276 271 269 267 264 263 264 257 249 244 241 232 212 203 202 199 201 204 199 195 206 207 194 180 165 161 160 157 134
312 312 313 311 308 307 303 299 297 296 292 288 284 282 277 272 266 257 253 254 256 251 243 238 233 241 227 206 200 201 205 203 200 201 208 203 197 185 175 166 152 124 113
315 317 316 313 308 305 301 300 299 296 293 288 286 281 276 272 267 257 243 250 247 247 241 234 227 227 224 210 204 200 201 201 202 205 202 194 189 197 176 153 149 145 138
321 318 313 309 305 302 299 298 298 297 294 293 290 286 282 275 269 255 234 240 242 243 240 234 231 229 214 201 203 200 203 199 188 187 192 194 194 193 181 173 168 159 146
320 314 309 307 304 298 296 297 299 300 299 298 295 291 285 277 275 254 230 236 236 233 235 226 224 212 202 199 206 206 205 196 185 181 184 190 190 186 182 183 181 169 160
318 313 311 309 307 305 303 301 301 302 303 303 304 303 297 289 278 260 228 228 247 238 238 234 215 195 194 197 202 196 183 185 185 183 185 189 190 186 184 182 179 174 160
318 314 312 310 305 302 302 305 307 306 308 310 314 314 315 313 298 236 215 213 220 236 277 284 189 181 184 197 208 190 182 196 200 196 196 194 192 185 171 160 148 132 117
318 315 312 310 307 309 308 308 309 313 318 320 323 326 327 333 345 340 212 197 199 210 219 198 165 170 192 213 192 194 205 212 206 207 201 189 179 178 167 153 146 133 120
317 315 314 312 309 308 307 304 302 312 312 301 313 322 327 333 355 356 355 344 197 173 197 188 193 186 199 211 203 195 202 209 212 211 202 187 177 175 166 154 149 143 140
315 316 314 311 310 310 311 311 292 280 257 248 257 277 294 303 324 334 349 4 19 24 248 219 217 222 218 216 211 203 203 207 206 201 200 187 180 175 166 155 157 157 152
312 312 310 308 309 309 311 314 315 286 246 249 253 257 265 288 293 296 303 313 313 329 240 237 230 226 229 229 224 217 210 205 202 198 195 188 178 172 166 162 164 161 156
313 310 308 308 308 307 310 311 307 309 307 283 231 235 247 258 265 267 263 258 234 217 230 234 236 234 232 228 226 221 215 206 199 197 190 184 177 170 168 168 167 163 158
314 312 313 311 305 304 307 305 309 319 318 318 306 205 224 230 238 245 230 239 247 233 229 230 231 232 230 229 225 216 213 207 191 187 186 179 174 169 170 169 166 163 160
313 312 310 307 305 305 308 315 328 329 325 326 324 316 227 221 233 215 214 231 244 251 249 243 233 228 225 226 223 213 207 201 189 185 181 178 175 172 170 169 167 166 168
315 314 312 309 310 314 317 323 327 324 327 333 335 355 330 293 285 272 238 234 241 246 246 246 243 237 225 214 211 212 210 195 183 181 178 175 174 172 169 168 166 166 166
311 312 317 319 319 320 321 317 317 323 336 339 328 301 265 283 297 293 282 273 267 259 251 239 240 235 228 221 208 204 206 195 186 181 180 174 170 170 168 167 166 166 165
311 317 320 323 323 322 319 319 324 335 339 341 342 341 323 314 321 315 297 279 273 269 269 270 261 244 226 224 207 200 202 196 189 184 180 173 170 169 167 167 166 164 164
314 322 327 329 328 331 333 331 339 344 346 350 350 340 334 335 330 328 327 320 312 296 275 266 263 264 248 206 208 202 189 180 180 182 176 168 164 163 164 164 164 164 163
323 330 330 331 331 331 332 333 343 341 336 349 352 340 340 345 343 339 338 349 357 349 313 287 281 267 230 186 143 115 114 128 146 157 160 159 158 158 159 159 160 157 156
334 335 332 331 330 331 331 334 343 342 335 347 351 339 333 338 342 334 335 347 3 19 34 29 54 81 96 96 96 99 100 98 104 122 137 143 146 149 151 152 152 151 154